Regional Weather Roundup
Issued by NWS Green Bay, WI

Home | Current Version | Previous Version | Graphics & Text | Print | Product List | Glossary Off
Versions: 1 2 3 4 5 6 7 8 9 10 11 12 13 14 15 16 17 18 19 20 21 22 23 24 25 26 27 28 29 30 31 32 33 34 35 36 37 38 39 40 41 42 43 44 45 46 47 48 49 50

000
ASUS43 KGRB 191500
RWRGRB

NORTH-CENTRAL AND NORTHEAST WISCONSIN REGIONAL WEATHER ROUNDUP
NATIONAL WEATHER SERVICE GREEN BAY WI
900 AM CST THU JAN 19 2017

WIZ005-009-010>012-018-019-191600-
NORTH CENTRAL WISCONSIN

CITY           SKY/WX    TMP DP  RH WIND       PRES   REMARKS
IRONWOOD       CLOUDY    34  33  96 VRB3      29.82F FOG
MANITOWISH WTR NOT AVBL
ARBOR VITAE    NOT AVBL
EAGLE RIVER    NOT AVBL
LAND O LAKES   NOT AVBL
RHINELANDER    FOG       32  32 100 SW8       29.88R VSB 1/4
PHILLIPS       FOG       32  32 100 S7        29.86S VSB 3/4
ANTIGO         NOT AVBL
TOMAHAWK       NOT AVBL
MERRILL        FOG       32  32 100 CALM        N/A  VSB 1/2
$$

WIZ013-073-191600-
NORTHEAST WISCONSIN

CITY           SKY/WX    TMP DP  RH WIND       PRES   REMARKS
IRON MOUNTAIN  FOG       32  29  88 S7        29.88S VSB 1
MARINETTE      NOT AVBL
$$

WIZ017-030-035>037-045-191600-
CENTRAL WISCONSIN

CITY           SKY/WX    TMP DP  RH WIND       PRES   REMARKS
MEDFORD        NOT AVBL
WAUSAU         FOG       31  31 100 S3        29.90S VSB 1/4
MOSINEE        FOG       32  32 100 CALM      29.92S VSB 1/8
MARSHFIELD     FOG       31  31 100 E3        29.88S VSB<1/4
WISC RAPIDS    FOG       32  32 100 E3        29.92S VSB<1/4
STEVENS POINT  NOT AVBL
WAUPACA        NOT AVBL
SHAWANO        NOT AVBL
CLINTONVILLE   FOG       32  32 100 CALM      29.94S VSB 3/4
WAUTOMA        FOG       33  32  96 SE6       29.94S VSB 1/4
$$

WIZ038-039-048-051-191600-
FOX VALLEY

CITY           SKY/WX    TMP DP  RH WIND       PRES   REMARKS
NWS GREEN BAY  FOG       35  34  96 SW7       29.96R VSB 1
APPLETON       FOG       32  32 100 SW6       29.92F VSB 1/4
OSHKOSH        FOG       32  31  96 S5        29.94S VSB 1/4
FOND DU LAC    FOG       32  30  92 S5        29.95R VSB 1/4
$$

WIZ022-050-052-191600-
EAST CENTRAL WISCONSIN

CITY           SKY/WX    TMP DP  RH WIND       PRES   REMARKS
EPHRAIM        NOT AVBL
WASHINGTON ISL NOT AVBL
STURGEON BAY   FOG       32  32 100 SW6       29.97R VSB 1/2
MANITOWOC      NOT AVBL
SHEBOYGAN      FOG       33  31  92 SE3       29.97R VSB 1/2
$$

LMZ563-521-522-541>543-191600-
LAKESHORE

STATION/POSITION TIME  TEMP    WIND        PRES    VSBY  WAVE
                       AIR SEA DIR/SP/G                  HT/PER
                 (UTC) (F)     (DEG/KT/KT) (MB)    (MI)  (FT/S)
SHEBOYGAN LKSHOR 1400   34      70/  2/  2 1015.3F
KEWAUNEE LKSHORE 1430   33     200/  1/  4 1014.5R
NORTHPORT PIER   1440   31     210/  2/  6 1013.9S
SISTER BAY LKSHO 1420   32     240/  9/ 10   N/A
MENOMINEE LKSHOR 1424          210/  7/ 10 1013.6
$$




USA.gov is the U.S. government's official web portal to all federal, state and local government web resources and services.